When you browse on this site, cookies collect data to enhance your experience and personalize the content and advertising you see.
Visit our Privacy Policy to learn more. By continuing to use the site, you agree to this use of cookies and data.
  • En España
  • Lista de países
  • Para 7 días
  • Temperatura del agua
  • El tiempo en el mapa
  • Informadores
  • user-avatar
    Iniciar sesión

    Tiempo cada hora Kyzylorda

    Hoy, 21 Agosto, Miércoles

    Tiempo Temperatura Precipitaciones Viento Presión Humedad
    00:00 +28°C° 0 mm 4 mps 749 mmHg 28%
    01:00 +28°C° 0 mm 4 mps 749 mmHg 30%
    02:00 +27°C° 0 mm 4 mps 749 mmHg 32%
    03:00 +26°C° 0 mm 4 mps 749 mmHg 35%
    04:00 +25°C° 0 mm 3 mps 750 mmHg 40%
    05:00 +27°C° 0 mm 4 mps 750 mmHg 38%
    06:00 +28°C° 0 mm 4 mps 750 mmHg 35%
    07:00 +30°C° 0 mm 4 mps 750 mmHg 33%
    08:00 +32°C° 0 mm 5 mps 750 mmHg 29%
    09:00 +34°C° 0 mm 5 mps 750 mmHg 26%
    10:00 +36°C° 0 mm 6 mps 750 mmHg 23%
    11:00 +38°C° 0 mm 6 mps 749 mmHg 21%
    12:00 +39°C° 0 mm 6 mps 749 mmHg 19%
    13:00 +40°C° 0 mm 7 mps 748 mmHg 17%
    14:00 +40°C° 0 mm 6 mps 748 mmHg 17%
    15:00 +40°C° 0 mm 6 mps 748 mmHg 16%
    16:00 +40°C° 0 mm 6 mps 747 mmHg 16%
    17:00 +37°C° 0 mm 4 mps 747 mmHg 19%
    18:00 +34°C° 0 mm 3 mps 747 mmHg 22%
    19:00 +31°C° 0 mm 2 mps 746 mmHg 25%
    20:00 +30°C° 0 mm 2 mps 746 mmHg 26%
    21:00 +29°C° 0 mm 2 mps 746 mmHg 27%
    22:00 +28°C° 0 mm 2 mps 746 mmHg 28%
    23:00 +28°C° 0 mm 3 mps 745 mmHg 28%

    Mañana, 22 Agosto, Jueves

    Tiempo Temperatura Precipitaciones Viento Presión Humedad
    00:00 +28°C° 0 mm 3 mps 745 mmHg 28%
    01:00 +28°C° 0 mm 4 mps 745 mmHg 28%
    02:00 +27°C° 0 mm 4 mps 745 mmHg 31%
    03:00 +26°C° 0 mm 4 mps 745 mmHg 34%
    04:00 +25°C° 0 mm 4 mps 745 mmHg 37%
    05:00 +27°C° 0 mm 5 mps 745 mmHg 36%
    06:00 +28°C° 0 mm 6 mps 746 mmHg 36%
    07:00 +30°C° 0 mm 7 mps 746 mmHg 35%
    08:00 +32°C° 0 mm 7 mps 746 mmHg 34%
    09:00 +33°C° 0 mm 8 mps 746 mmHg 32%
    10:00 +34°C° 0 mm 8 mps 747 mmHg 30%
    11:00 +35°C° 0 mm 8 mps 746 mmHg 28%
    12:00 +35°C° 0 mm 7 mps 746 mmHg 26%
    13:00 +36°C° 0 mm 7 mps 746 mmHg 24%
    14:00 +36°C° 0 mm 7 mps 746 mmHg 23%
    15:00 +35°C° 0 mm 7 mps 746 mmHg 23%
    16:00 +35°C° 0 mm 8 mps 746 mmHg 22%
    17:00 +33°C° 0 mm 7 mps 746 mmHg 22%
    18:00 +30°C° 0 mm 5 mps 747 mmHg 22%
    19:00 +28°C° 0 mm 4 mps 747 mmHg 22%
    20:00 +27°C° 0 mm 5 mps 747 mmHg 24%
    21:00 +26°C° 0 mm 5 mps 747 mmHg 25%
    22:00 +25°C° 0 mm 5 mps 747 mmHg 27%
    23:00 +23°C° 0 mm 5 mps 747 mmHg 30%

    Pasado mañana, 23 Agosto, Viernes

    Tiempo Temperatura Precipitaciones Viento Presión Humedad
    00:00 +22°C° 0 mm 5 mps 747 mmHg 32%
    01:00 +22°C° 0 mm 5 mps 748 mmHg 34%
    02:00 +21°C° 0 mm 5 mps 748 mmHg 36%
    03:00 +20°C° 0 mm 5 mps 748 mmHg 38%
    04:00 +20°C° 0 mm 5 mps 748 mmHg 40%
    05:00 +21°C° 0 mm 6 mps 749 mmHg 38%
    06:00 +22°C° 0 mm 7 mps 749 mmHg 36%
    07:00 +23°C° 0 mm 8 mps 749 mmHg 35%
    08:00 +24°C° 0 mm 8 mps 749 mmHg 32%
    09:00 +26°C° 0 mm 8 mps 750 mmHg 29%
    10:00 +28°C° 0 mm 8 mps 750 mmHg 26%
    11:00 +28°C° 0 mm 9 mps 750 mmHg 24%
    12:00 +29°C° 0 mm 9 mps 750 mmHg 22%
    13:00 +31°C° 0 mm 9 mps 749 mmHg 20%
    14:00 +31°C° 0 mm 9 mps 749 mmHg 20%
    15:00 +31°C° 0 mm 9 mps 749 mmHg 19%
    16:00 +31°C° 0 mm 8 mps 749 mmHg 19%
    17:00 +29°C° 0 mm 8 mps 749 mmHg 21%
    18:00 +27°C° 0 mm 7 mps 749 mmHg 23%
    19:00 +26°C° 0 mm 6 mps 749 mmHg 25%
    20:00 +24°C° 0 mm 6 mps 750 mmHg 26%
    21:00 +23°C° 0 mm 6 mps 750 mmHg 26%
    22:00 +23°C° 0 mm 6 mps 750 mmHg 26%
    23:00 +22°C° 0 mm 5 mps 750 mmHg 27%

    24 Agosto, Sábado

    Tiempo Temperatura Precipitaciones Viento Presión Humedad
    00:00 +21°C° 0 mm 5 mps 750 mmHg 28%
    01:00 +21°C° 0 mm 5 mps 750 mmHg 28%
    02:00 +20°C° 0 mm 5 mps 750 mmHg 29%
    03:00 +20°C° 0 mm 5 mps 750 mmHg 31%
    04:00 +19°C° 0 mm 5 mps 751 mmHg 32%
    05:00 +21°C° 0 mm 5 mps 751 mmHg 29%
    06:00 +23°C° 0 mm 6 mps 751 mmHg 27%
    07:00 +26°C° 0 mm 7 mps 751 mmHg 25%
    08:00 +27°C° 0 mm 7 mps 751 mmHg 22%
    09:00 +29°C° 0 mm 8 mps 751 mmHg 19%
    10:00 +32°C° 0 mm 9 mps 751 mmHg 17%
    11:00 +33°C° 0 mm 9 mps 751 mmHg 15%
    12:00 +34°C° 0 mm 9 mps 750 mmHg 14%
    13:00 +35°C° 0 mm 8 mps 750 mmHg 13%
    14:00 +35°C° 0 mm 8 mps 750 mmHg 13%
    15:00 +35°C° 0 mm 8 mps 749 mmHg 13%
    16:00 +35°C° 0 mm 8 mps 749 mmHg 12%
    17:00 +33°C° 0 mm 7 mps 749 mmHg 15%
    18:00 +30°C° 0 mm 6 mps 749 mmHg 17%
    19:00 +28°C° 0 mm 5 mps 749 mmHg 19%
    20:00 +27°C° 0 mm 5 mps 749 mmHg 20%
    21:00 +26°C° 0 mm 5 mps 749 mmHg 21%
    22:00 +25°C° 0 mm 5 mps 749 mmHg 23%
    23:00 +25°C° 0 mm 5 mps 749 mmHg 24%

    25 Agosto, Domingo

    Tiempo Temperatura Precipitaciones Viento Presión Humedad
    00:00 +23°C° 0 mm 5 mps 749 mmHg 24%
    01:00 +23°C° 0 mm 4 mps 749 mmHg 25%
    02:00 +22°C° 0 mm 4 mps 749 mmHg 26%
    03:00 +22°C° 0 mm 4 mps 749 mmHg 27%
    04:00 +21°C° 0 mm 4 mps 749 mmHg 28%
    05:00 +23°C° 0 mm 5 mps 749 mmHg 26%
    06:00 +24°C° 0 mm 6 mps 749 mmHg 25%
    07:00 +27°C° 0 mm 7 mps 749 mmHg 23%
    08:00 +29°C° 0 mm 7 mps 749 mmHg 20%
    09:00 +32°C° 0 mm 8 mps 749 mmHg 18%
    10:00 +34°C° 0 mm 9 mps 749 mmHg 15%
    11:00 +35°C° 0 mm 9 mps 748 mmHg 14%
    12:00 +35°C° 0 mm 9 mps 748 mmHg 13%
    13:00 +37°C° 0 mm 10 mps 747 mmHg 12%
    14:00 +37°C° 0 mm 9 mps 747 mmHg 12%
    15:00 +37°C° 0 mm 9 mps 747 mmHg 12%
    16:00 +37°C° 0 mm 9 mps 747 mmHg 12%
    17:00 +34°C° 0 mm 7 mps 747 mmHg 14%
    18:00 +32°C° 0 mm 6 mps 747 mmHg 16%
    19:00 +29°C° 0 mm 5 mps 747 mmHg 18%
    20:00 +28°C° 0 mm 5 mps 746 mmHg 20%
    21:00 +27°C° 0 mm 5 mps 746 mmHg 21%
    22:00 +27°C° 0 mm 5 mps 746 mmHg 22%
    23:00 +26°C° 0 mm 5 mps 746 mmHg 23%

    26 Agosto, Lunes

    Tiempo Temperatura Precipitaciones Viento Presión Humedad
    00:00 +25°C° 0 mm 5 mps 746 mmHg 25%
    01:00 +23°C° 0 mm 5 mps 746 mmHg 26%
    02:00 +23°C° 0 mm 5 mps 746 mmHg 27%
    03:00 +23°C° 0 mm 5 mps 746 mmHg 29%
    04:00 +22°C° 0 mm 5 mps 746 mmHg 30%
    05:00 +23°C° 0 mm 6 mps 746 mmHg 28%
    06:00 +26°C° 0 mm 7 mps 746 mmHg 27%
    07:00 +27°C° 0 mm 8 mps 746 mmHg 25%
    08:00 +29°C° 0 mm 8 mps 746 mmHg 22%
    09:00 +32°C° 0 mm 8 mps 746 mmHg 19%
    10:00 +34°C° 0 mm 9 mps 745 mmHg 16%
    11:00 +35°C° 0 mm 8 mps 745 mmHg 15%
    12:00 +38°C° 0 mm 8 mps 745 mmHg 13%
    13:00 +39°C° 0 mm 7 mps 745 mmHg 11%
    14:00 +39°C° 0 mm 7 mps 744 mmHg 11%
    15:00 +39°C° 0 mm 6 mps 744 mmHg 11%
    16:00 +39°C° 0 mm 6 mps 744 mmHg 11%
    17:00 +36°C° 0 mm 6 mps 744 mmHg 13%
    18:00 +34°C° 0 mm 5 mps 744 mmHg 16%
    19:00 +32°C° 0 mm 5 mps 744 mmHg 18%
    20:00 +30°C° 0 mm 5 mps 744 mmHg 20%
    21:00 +29°C° 0 mm 5 mps 744 mmHg 21%
    22:00 +28°C° 0 mm 5 mps 744 mmHg 22%
    23:00 +27°C° 0 mm 4 mps 743 mmHg 23%
    Mostrar más